Time,TemperatureF,DewpointF,PressureIn,WindDirection,WindDirectionDegrees,WindSpeedMPH,WindSpeedGustMPH,Humidity,HourlyPrecipIn,Conditions,Clouds,dailyrainin,SoftwareType,DateUTC
2013-04-20 00:01:00,72.6,64.4,29.98,North,360,7.0,-999.0,75,0.00,,,0.00,PyWeather,2013-04-20 10:01:00,
2013-04-20 00:06:00,72.5,64.6,29.98,North,355,5.0,-999.0,76,0.00,,,0.00,PyWeather,2013-04-20 10:06:00,
2013-04-20 00:11:00,72.5,64.6,29.98,North,360,4.0,-999.0,76,0.00,,,0.00,PyWeather,2013-04-20 10:11:00,
2013-04-20 00:16:00,72.5,64.6,29.98,North,355,4.0,-999.0,76,0.00,,,0.00,PyWeather,2013-04-20 10:16:00,
2013-04-20 00:21:00,72.5,64.6,29.98,North,355,5.0,12.0,76,0.00,,,0.00,PyWeather,2013-04-20 10:21:00,
2013-04-20 00:26:00,72.5,65.0,29.98,North,360,8.0,12.0,77,0.00,,,0.00,PyWeather,2013-04-20 10:26:00,
2013-04-20 00:31:00,72.4,64.5,29.98,North,355,7.0,-999.0,76,0.00,,,0.00,PyWeather,2013-04-20 10:31:00,
2013-04-20 00:36:00,72.4,64.5,29.98,North,355,6.0,-999.0,76,0.00,,,0.00,PyWeather,2013-04-20 10:36:00,
2013-04-20 00:41:00,72.3,64.4,29.98,NNW,346,7.0,-999.0,76,0.00,,,0.00,PyWeather,2013-04-20 10:41:00,
2013-04-20 00:46:00,72.4,64.5,29.97,NNE,14,8.0,-999.0,76,0.00,,,0.00,PyWeather,2013-04-20 10:46:00,
2013-04-20 00:51:00,72.3,64.4,29.97,NNE,29,6.0,14.0,76,0.00,,,0.00,PyWeather,2013-04-20 10:51:00,
2013-04-20 00:56:00,72.2,64.7,29.97,NE,34,4.0,14.0,77,0.00,,,0.00,PyWeather,2013-04-20 10:56:00,
2013-04-20 01:01:00,72.1,64.6,29.97,NE,36,3.0,10.0,77,0.00,,,0.00,PyWeather,2013-04-20 11:01:00,
2013-04-20 01:06:00,71.8,64.3,29.97,NE,42,3.0,10.0,77,0.00,,,0.00,PyWeather,2013-04-20 11:06:00,
2013-04-20 01:11:00,71.7,64.2,29.97,NE,48,4.0,-999.0,77,0.00,,,0.00,PyWeather,2013-04-20 11:11:00,
2013-04-20 01:16:00,71.5,64.0,29.97,NE,54,2.0,-999.0,77,0.00,,,0.00,PyWeather,2013-04-20 11:16:00,
2013-04-20 01:21:00,71.3,64.2,29.97,NE,53,1.0,-999.0,78,0.00,,,0.00,PyWeather,2013-04-20 11:21:00,
2013-04-20 01:26:00,71.2,64.1,29.97,NE,53,0.0,-999.0,78,0.00,,,0.00,PyWeather,2013-04-20 11:26:00,
2013-04-20 01:31:00,71.2,64.1,29.97,NE,53,0.0,-999.0,78,0.00,,,0.00,PyWeather,2013-04-20 11:31:00,
2013-04-20 01:36:00,71.2,64.1,29.97,NE,52,0.0,-999.0,78,0.00,,,0.00,PyWeather,2013-04-20 11:36:00,
2013-04-20 01:41:00,71.1,64.0,29.96,NE,53,0.0,-999.0,78,0.00,,,0.00,PyWeather,2013-04-20 11:41:00,
2013-04-20 01:46:00,71.0,63.9,29.96,NE,52,0.0,-999.0,78,0.00,,,0.00,PyWeather,2013-04-20 11:46:00,
2013-04-20 01:51:00,70.9,63.8,29.96,NE,53,1.0,-999.0,78,0.00,,,0.00,PyWeather,2013-04-20 11:51:00,
2013-04-20 01:56:00,70.7,63.6,29.96,East,88,3.0,-999.0,78,0.00,,,0.00,PyWeather,2013-04-20 11:56:00,
2013-04-20 02:01:00,70.6,63.5,29.96,East,88,2.0,-999.0,78,0.00,,,0.00,PyWeather,2013-04-20 12:01:00,
2013-04-20 02:06:00,70.5,63.4,29.96,East,88,2.0,-999.0,78,0.00,,,0.00,PyWeather,2013-04-20 12:06:00,
2013-04-20 02:11:00,70.4,63.3,29.96,East,88,3.0,-999.0,78,0.00,,,0.00,PyWeather,2013-04-20 12:11:00,
2013-04-20 02:16:00,70.4,63.3,29.95,ENE,76,3.0,-999.0,78,0.00,,,0.00,PyWeather,2013-04-20 12:16:00,
2013-04-20 02:21:00,70.6,63.9,29.95,NE,53,3.0,-999.0,79,0.00,,,0.00,PyWeather,2013-04-20 12:21:00,
2013-04-20 02:26:00,70.6,63.5,29.95,NE,53,2.0,-999.0,78,0.00,,,0.00,PyWeather,2013-04-20 12:26:00,
2013-04-20 02:31:00,70.7,63.6,29.95,NE,55,2.0,-999.0,78,0.00,,,0.00,PyWeather,2013-04-20 12:31:00,
2013-04-20 02:36:00,70.5,63.1,29.95,NE,53,2.0,-999.0,77,0.00,,,0.00,PyWeather,2013-04-20 12:36:00,
2013-04-20 02:41:00,70.4,63.3,29.95,NE,53,0.0,-999.0,78,0.00,,,0.00,PyWeather,2013-04-20 12:41:00,
2013-04-20 02:46:00,70.2,63.1,29.95,NE,54,0.0,-999.0,78,0.00,,,0.00,PyWeather,2013-04-20 12:46:00,
2013-04-20 02:51:00,70.1,63.0,29.95,NE,53,0.0,-999.0,78,0.00,,,0.00,PyWeather,2013-04-20 12:51:00,
2013-04-20 02:56:00,69.9,62.8,29.95,NE,56,0.0,-999.0,78,0.00,,,0.00,PyWeather,2013-04-20 12:56:00,
2013-04-20 03:01:00,69.7,63.0,29.94,NE,56,0.0,-999.0,79,0.00,,,0.00,PyWeather,2013-04-20 13:01:00,
2013-04-20 03:06:00,69.6,62.9,29.95,NE,56,0.0,-999.0,79,0.00,,,0.00,PyWeather,2013-04-20 13:06:00,
2013-04-20 03:11:00,69.5,62.8,29.94,NE,56,1.0,-999.0,79,0.00,,,0.00,PyWeather,2013-04-20 13:11:00,
2013-04-20 03:16:00,69.6,63.2,29.94,ENE,57,1.0,-999.0,80,0.00,,,0.00,PyWeather,2013-04-20 13:16:00,
2013-04-20 03:21:00,69.6,62.9,29.94,ENE,57,1.0,-999.0,79,0.00,,,0.00,PyWeather,2013-04-20 13:21:00,
2013-04-20 03:26:00,69.6,62.9,29.94,NE,56,0.0,-999.0,79,0.00,,,0.00,PyWeather,2013-04-20 13:26:00,
2013-04-20 03:31:00,69.5,62.8,29.94,ENE,57,0.0,-999.0,79,0.00,,,0.00,PyWeather,2013-04-20 13:31:00,
2013-04-20 03:36:00,69.4,62.7,29.94,NE,55,0.0,-999.0,79,0.00,,,0.00,PyWeather,2013-04-20 13:36:00,
2013-04-20 03:41:00,69.3,62.6,29.94,NE,56,0.0,-999.0,79,0.00,,,0.00,PyWeather,2013-04-20 13:41:00,
2013-04-20 03:46:00,69.2,62.5,29.94,NE,56,0.0,-999.0,79,0.00,,,0.00,PyWeather,2013-04-20 13:46:00,
2013-04-20 03:51:00,69.0,62.3,29.94,NE,56,0.0,-999.0,79,0.00,,,0.00,PyWeather,2013-04-20 13:51:00,
2013-04-20 03:56:00,68.9,62.6,29.94,NE,56,0.0,-999.0,80,0.00,,,0.00,PyWeather,2013-04-20 13:56:00,
2013-04-20 04:01:00,68.6,62.3,29.94,NE,55,0.0,-999.0,80,0.00,,,0.00,PyWeather,2013-04-20 14:01:00,
2013-04-20 04:06:00,68.5,62.2,29.94,NE,56,0.0,-999.0,80,0.00,,,0.00,PyWeather,2013-04-20 14:06:00,
2013-04-20 04:11:00,68.3,62.0,29.94,NE,55,0.0,-999.0,80,0.00,,,0.00,PyWeather,2013-04-20 14:11:00,
2013-04-20 04:16:00,68.2,61.9,29.94,ENE,57,0.0,-999.0,80,0.00,,,0.00,PyWeather,2013-04-20 14:16:00,
2013-04-20 04:21:00,67.9,61.2,29.94,ENE,57,0.0,-999.0,79,0.00,,,0.00,PyWeather,2013-04-20 14:21:00,
2013-04-20 04:26:00,67.7,61.4,29.94,ENE,57,0.0,-999.0,80,0.00,,,0.00,PyWeather,2013-04-20 14:26:00,
2013-04-20 04:31:00,67.6,61.3,29.94,NE,56,0.0,-999.0,80,0.00,,,0.00,PyWeather,2013-04-20 14:31:00,
2013-04-20 04:36:00,67.3,61.0,29.94,ENE,57,0.0,-999.0,80,0.00,,,0.00,PyWeather,2013-04-20 14:36:00,
2013-04-20 04:41:00,67.1,60.8,29.94,NE,56,0.0,-999.0,80,0.00,,,0.00,PyWeather,2013-04-20 14:41:00,
2013-04-20 04:46:00,67.0,60.7,29.95,NE,56,0.0,-999.0,80,0.00,,,0.00,PyWeather,2013-04-20 14:46:00,
2013-04-20 04:51:00,66.7,60.4,29.95,NE,56,0.0,-999.0,80,0.00,,,0.00,PyWeather,2013-04-20 14:51:00,
2013-04-20 04:56:00,66.5,60.6,29.95,NE,55,0.0,-999.0,81,0.00,,,0.00,PyWeather,2013-04-20 14:56:00,
2013-04-20 05:01:00,66.4,60.8,29.95,NE,56,0.0,-999.0,82,0.00,,,0.00,PyWeather,2013-04-20 15:01:00,
2013-04-20 05:06:00,66.3,60.7,29.95,NE,55,0.0,-999.0,82,0.00,,,0.00,PyWeather,2013-04-20 15:06:00,
2013-04-20 05:11:00,66.2,60.6,29.96,ENE,57,0.0,-999.0,82,0.00,,,0.00,PyWeather,2013-04-20 15:11:00,
2013-04-20 05:16:00,66.1,60.5,29.96,NE,56,0.0,-999.0,82,0.00,,,0.00,PyWeather,2013-04-20 15:16:00,
2013-04-20 05:21:00,66.0,60.4,29.96,NE,55,0.0,-999.0,82,0.00,,,0.00,PyWeather,2013-04-20 15:21:00,
2013-04-20 05:26:00,66.1,60.8,29.96,NE,56,0.0,-999.0,83,0.00,,,0.00,PyWeather,2013-04-20 15:26:00,
2013-04-20 05:31:00,66.3,61.0,29.97,ENE,57,0.0,-999.0,83,0.00,,,0.00,PyWeather,2013-04-20 15:31:00,
2013-04-20 05:36:00,66.3,61.0,29.97,ENE,57,0.0,-999.0,83,0.00,,,0.00,PyWeather,2013-04-20 15:36:00,
2013-04-20 05:41:00,66.4,61.1,29.97,NE,55,0.0,-999.0,83,0.00,,,0.00,PyWeather,2013-04-20 15:41:00,
2013-04-20 05:46:00,66.3,61.0,29.97,NE,56,0.0,-999.0,83,0.00,,,0.00,PyWeather,2013-04-20 15:46:00,
2013-04-20 05:51:00,66.4,61.1,29.97,NE,56,0.0,-999.0,83,0.00,,,0.00,PyWeather,2013-04-20 15:51:00,
2013-04-20 05:56:00,66.4,61.1,29.97,NE,56,0.0,-999.0,83,0.00,,,0.00,PyWeather,2013-04-20 15:56:00,
2013-04-20 06:02:00,66.3,61.0,29.97,NE,55,0.0,-999.0,83,0.00,,,0.00,PyWeather,2013-04-20 16:02:00,
2013-04-20 06:07:00,66.4,61.1,29.97,ENE,57,0.0,-999.0,83,0.00,,,0.00,PyWeather,2013-04-20 16:07:00,
2013-04-20 06:12:00,66.4,61.1,29.97,ENE,57,0.0,-999.0,83,0.00,,,0.00,PyWeather,2013-04-20 16:12:00,
2013-04-20 06:17:00,66.4,61.1,29.98,ENE,57,0.0,-999.0,83,0.00,,,0.00,PyWeather,2013-04-20 16:17:00,
2013-04-20 06:22:00,66.5,61.2,29.98,NE,55,0.0,-999.0,83,0.00,,,0.00,PyWeather,2013-04-20 16:22:00,
2013-04-20 06:27:00,66.5,61.5,29.98,NE,56,0.0,-999.0,84,0.00,,,0.00,PyWeather,2013-04-20 16:27:00,
2013-04-20 06:32:00,66.6,61.3,29.98,NE,56,0.0,-999.0,83,0.00,,,0.00,PyWeather,2013-04-20 16:32:00,
2013-04-20 06:37:00,66.7,61.7,29.98,NE,55,2.0,-999.0,84,0.00,,,0.00,PyWeather,2013-04-20 16:37:00,
2013-04-20 06:42:00,67.0,62.0,29.98,NE,55,2.0,-999.0,84,0.00,,,0.00,PyWeather,2013-04-20 16:42:00,
2013-04-20 06:47:00,67.3,62.3,29.98,NE,55,0.0,-999.0,84,0.00,,,0.00,PyWeather,2013-04-20 16:47:00,
2013-04-20 06:52:00,67.9,62.9,29.98,ENE,57,0.0,-999.0,84,0.00,,,0.00,PyWeather,2013-04-20 16:52:00,
2013-04-20 06:57:00,68.5,63.5,29.98,ENE,57,0.0,-999.0,84,0.00,,,0.00,PyWeather,2013-04-20 16:57:00,
2013-04-20 07:02:00,69.3,64.3,29.98,ENE,57,0.0,-999.0,84,0.00,,,0.00,PyWeather,2013-04-20 17:02:00,
2013-04-20 07:07:00,70.1,65.1,29.98,NE,56,0.0,-999.0,84,0.00,,,0.00,PyWeather,2013-04-20 17:07:00,
2013-04-20 07:12:00,70.8,65.1,29.98,ENE,57,0.0,-999.0,82,0.00,,,0.00,PyWeather,2013-04-20 17:12:00,
2013-04-20 07:17:00,71.3,65.2,29.98,NE,56,0.0,-999.0,81,0.00,,,0.00,PyWeather,2013-04-20 17:17:00,
2013-04-20 07:22:00,71.7,64.9,29.99,NE,56,0.0,-999.0,79,0.00,,,0.00,PyWeather,2013-04-20 17:22:00,
2013-04-20 07:27:00,72.0,65.2,29.98,ENE,57,0.0,-999.0,79,0.00,,,0.00,PyWeather,2013-04-20 17:27:00,
2013-04-20 07:32:00,72.2,65.1,29.99,NE,56,0.0,-999.0,78,0.00,,,0.00,PyWeather,2013-04-20 17:32:00,
2013-04-20 07:37:00,72.3,65.5,29.99,NE,56,0.0,-999.0,79,0.00,,,0.00,PyWeather,2013-04-20 17:37:00,
2013-04-20 07:42:00,72.8,65.7,29.98,NE,56,0.0,-999.0,78,0.00,,,0.00,PyWeather,2013-04-20 17:42:00,
2013-04-20 07:47:00,73.0,65.8,29.99,NE,55,0.0,-999.0,78,0.00,,,0.00,PyWeather,2013-04-20 17:47:00,
2013-04-20 07:52:00,73.1,65.6,29.99,NE,55,0.0,-999.0,77,0.00,,,0.00,PyWeather,2013-04-20 17:52:00,
2013-04-20 07:57:00,73.3,65.4,29.99,NE,56,0.0,-999.0,76,0.00,,,0.00,PyWeather,2013-04-20 17:57:00,
2013-04-20 08:02:00,73.6,65.7,29.99,NE,55,0.0,-999.0,76,0.00,,,0.00,PyWeather,2013-04-20 18:02:00,
2013-04-20 08:07:00,74.1,65.4,29.99,NE,55,0.0,-999.0,74,0.00,,,0.00,PyWeather,2013-04-20 18:07:00,
2013-04-20 08:12:00,74.4,65.4,29.99,NE,34,0.0,-999.0,73,0.00,,,0.00,PyWeather,2013-04-20 18:12:00,
2013-04-20 08:17:00,74.4,65.4,29.99,WSW,244,1.0,-999.0,73,0.00,,,0.00,PyWeather,2013-04-20 18:17:00,
2013-04-20 08:22:00,74.4,65.4,29.99,SW,223,1.0,-999.0,73,0.00,,,0.00,PyWeather,2013-04-20 18:22:00,
2013-04-20 08:27:00,74.6,65.2,29.99,SW,224,1.0,-999.0,72,0.00,,,0.00,PyWeather,2013-04-20 18:27:00,
2013-04-20 08:32:00,75.0,65.5,29.99,SW,223,1.0,-999.0,72,0.00,,,0.00,PyWeather,2013-04-20 18:32:00,
2013-04-20 08:37:00,75.5,65.6,29.99,SSW,202,2.0,-999.0,71,0.00,,,0.00,PyWeather,2013-04-20 18:37:00,
2013-04-20 08:42:00,75.8,65.5,29.99,SSW,202,1.0,-999.0,70,0.00,,,0.00,PyWeather,2013-04-20 18:42:00,
2013-04-20 08:47:00,75.9,65.6,29.99,SW,217,2.0,-999.0,70,0.00,,,0.00,PyWeather,2013-04-20 18:47:00,
2013-04-20 08:52:00,76.1,65.8,29.99,SSW,202,2.0,-999.0,70,0.00,,,0.00,PyWeather,2013-04-20 18:52:00,
2013-04-20 08:57:00,76.4,66.1,29.99,SSW,207,2.0,-999.0,70,0.00,,,0.00,PyWeather,2013-04-20 18:57:00,
2013-04-20 09:02:00,76.6,65.9,29.99,South,171,2.0,-999.0,69,0.00,,,0.00,PyWeather,2013-04-20 19:02:00,
2013-04-20 09:07:00,76.7,66.0,29.99,South,186,3.0,-999.0,69,0.00,,,0.00,PyWeather,2013-04-20 19:07:00,
2013-04-20 09:12:00,77.0,66.3,29.99,WSW,249,3.0,-999.0,69,0.00,,,0.00,PyWeather,2013-04-20 19:12:00,
2013-04-20 09:17:00,77.1,66.4,29.99,SSW,198,3.0,-999.0,69,0.00,,,0.00,PyWeather,2013-04-20 19:17:00,
2013-04-20 09:22:00,77.5,66.3,29.99,South,179,4.0,-999.0,68,0.00,,,0.00,PyWeather,2013-04-20 19:22:00,
2013-04-20 09:27:00,77.4,66.2,29.99,South,189,5.0,-999.0,68,0.00,,,0.00,PyWeather,2013-04-20 19:27:00,
2013-04-20 09:32:00,77.5,66.7,29.99,SSW,195,5.0,-999.0,69,0.00,,,0.00,PyWeather,2013-04-20 19:32:00,
2013-04-20 09:37:00,77.7,67.3,29.99,SSW,193,5.0,-999.0,70,0.00,,,0.00,PyWeather,2013-04-20 19:37:00,
2013-04-20 09:42:00,77.8,67.4,29.99,SSW,206,6.0,12.0,70,0.00,,,0.00,PyWeather,2013-04-20 19:42:00,
2013-04-20 09:47:00,77.8,67.4,29.99,SW,222,7.0,12.0,70,0.00,,,0.00,PyWeather,2013-04-20 19:47:00,
2013-04-20 09:52:00,77.8,67.4,29.99,SW,225,8.0,-999.0,70,0.00,,,0.00,PyWeather,2013-04-20 19:52:00,
2013-04-20 09:57:00,78.0,67.2,29.99,SSW,206,9.0,-999.0,69,0.00,,,0.00,PyWeather,2013-04-20 19:57:00,
2013-04-20 10:02:00,77.6,67.7,29.99,SW,219,9.0,-999.0,71,0.00,,,0.00,PyWeather,2013-04-20 20:02:00,
2013-04-20 10:07:00,77.7,67.8,29.99,SW,224,9.0,-999.0,71,0.00,,,0.00,PyWeather,2013-04-20 20:07:00,
2013-04-20 10:12:00,77.6,67.3,29.99,WSW,257,8.0,-999.0,70,0.00,,,0.00,PyWeather,2013-04-20 20:12:00,
2013-04-20 10:17:00,77.8,67.4,29.99,WSW,240,8.0,-999.0,70,0.00,,,0.00,PyWeather,2013-04-20 20:17:00,
2013-04-20 10:22:00,77.7,67.3,29.99,WSW,239,8.0,-999.0,70,0.00,,,0.00,PyWeather,2013-04-20 20:22:00,
2013-04-20 10:27:00,78.1,67.7,29.99,WSW,240,7.0,-999.0,70,0.00,,,0.00,PyWeather,2013-04-20 20:27:00,
2013-04-20 10:32:00,78.2,67.4,29.99,SW,225,8.0,-999.0,69,0.00,,,0.00,PyWeather,2013-04-20 20:32:00,
2013-04-20 10:37:00,78.3,67.5,29.98,SSW,211,7.0,-999.0,69,0.00,,,0.00,PyWeather,2013-04-20 20:37:00,
2013-04-20 10:42:00,78.3,67.5,29.98,SSW,209,7.0,-999.0,69,0.00,,,0.00,PyWeather,2013-04-20 20:42:00,
2013-04-20 10:51:00,78.7,67.5,29.98,SSW,206,7.0,-999.0,68,0.00,,,0.00,PyWeather,2013-04-20 20:51:00,
2013-04-20 10:56:00,78.8,67.1,29.98,WSW,241,7.0,-999.0,67,0.00,,,0.00,PyWeather,2013-04-20 20:56:00,
2013-04-20 11:01:00,79.0,66.9,29.98,SSW,213,7.0,-999.0,66,0.00,,,0.00,PyWeather,2013-04-20 21:01:00,
2013-04-20 11:06:00,79.1,66.6,29.98,SW,236,8.0,-999.0,65,0.00,,,0.00,PyWeather,2013-04-20 21:06:00,
2013-04-20 11:11:00,79.9,66.9,29.98,SW,230,9.0,-999.0,64,0.00,,,0.00,PyWeather,2013-04-20 21:11:00,
2013-04-20 11:16:00,80.0,66.5,29.98,WSW,238,10.0,-999.0,63,0.00,,,0.00,PyWeather,2013-04-20 21:16:00,
2013-04-20 11:21:00,79.7,65.3,29.98,SW,220,10.0,-999.0,61,0.00,,,0.00,PyWeather,2013-04-20 21:21:00,
2013-04-20 11:26:00,80.2,66.2,29.97,SW,230,9.0,-999.0,62,0.00,,,0.00,PyWeather,2013-04-20 21:26:00,
2013-04-20 11:34:00,80.0,65.6,29.97,SW,229,10.0,-999.0,61,0.00,,,0.00,PyWeather,2013-04-20 21:34:00,
2013-04-20 11:39:00,80.6,65.7,29.97,WSW,242,9.0,-999.0,60,0.00,,,0.00,PyWeather,2013-04-20 21:39:00,
2013-04-20 11:44:00,80.6,64.7,29.97,SW,232,9.0,-999.0,58,0.00,,,0.00,PyWeather,2013-04-20 21:44:00,
2013-04-20 11:49:00,80.7,64.8,29.97,SW,221,10.0,-999.0,58,0.00,,,0.00,PyWeather,2013-04-20 21:49:00,
2013-04-20 11:54:00,81.5,66.5,29.97,WSW,240,10.0,-999.0,60,0.00,,,0.00,PyWeather,2013-04-20 21:54:00,
2013-04-20 11:59:00,81.4,65.4,29.97,SW,231,11.0,18.0,58,0.00,,,0.00,PyWeather,2013-04-20 21:59:00,
2013-04-20 12:04:00,81.5,65.5,29.97,SW,221,12.0,18.0,58,0.00,,,0.00,PyWeather,2013-04-20 22:04:00,
2013-04-20 12:09:00,81.6,65.1,29.97,SW,229,12.0,-999.0,57,0.00,,,0.00,PyWeather,2013-04-20 22:09:00,
2013-04-20 12:14:00,81.6,63.5,29.96,SSW,212,12.0,-999.0,54,0.00,,,0.00,PyWeather,2013-04-20 22:14:00,
2013-04-20 12:19:00,81.8,64.8,29.96,SSW,212,12.0,-999.0,56,0.00,,,0.00,PyWeather,2013-04-20 22:19:00,
2013-04-20 12:24:00,81.9,63.3,29.96,WSW,240,11.0,-999.0,53,0.00,,,0.00,PyWeather,2013-04-20 22:24:00,
2013-04-20 12:29:00,82.5,64.4,29.95,WSW,238,10.0,-999.0,54,0.00,,,0.00,PyWeather,2013-04-20 22:29:00,
2013-04-20 12:34:00,82.7,63.4,29.95,SSW,211,11.0,-999.0,52,0.00,,,0.00,PyWeather,2013-04-20 22:34:00,
2013-04-20 12:39:00,82.4,63.2,29.95,WSW,242,11.0,17.0,52,0.00,,,0.00,PyWeather,2013-04-20 22:39:00,
2013-04-20 12:49:00,83.4,64.1,29.95,WSW,250,10.0,-999.0,52,0.00,,,0.00,PyWeather,2013-04-20 22:49:00,
2013-04-20 12:54:00,82.8,64.1,29.95,WSW,253,10.0,-999.0,53,0.00,,,0.00,PyWeather,2013-04-20 22:54:00,
2013-04-20 13:04:00,83.4,65.2,29.94,NNE,24,6.0,-999.0,54,0.00,,,0.00,PyWeather,2013-04-20 23:04:00,
2013-04-20 13:09:00,83.6,67.0,29.94,WNW,303,4.0,-999.0,57,0.00,,,0.00,PyWeather,2013-04-20 23:09:00,
2013-04-20 13:14:00,83.5,67.4,29.94,NNE,22,2.0,-999.0,58,0.00,,,0.00,PyWeather,2013-04-20 23:14:00,
2013-04-20 13:19:00,83.0,66.9,29.94,WNW,300,3.0,-999.0,58,0.00,,,0.00,PyWeather,2013-04-20 23:19:00,
2013-04-20 13:24:00,82.9,67.3,29.94,SE,143,3.0,-999.0,59,0.00,,,0.00,PyWeather,2013-04-20 23:24:00,
2013-04-20 13:29:00,82.8,67.3,29.93,North,11,4.0,11.0,59,0.00,,,0.00,PyWeather,2013-04-20 23:29:00,
2013-04-20 13:34:00,83.0,67.4,29.93,North,11,4.0,11.0,59,0.00,,,0.00,PyWeather,2013-04-20 23:34:00,
2013-04-20 13:39:00,82.8,66.2,29.93,WSW,247,3.0,12.0,57,0.00,,,0.00,PyWeather,2013-04-20 23:39:00,
2013-04-20 13:44:00,82.1,66.6,29.93,WNW,283,4.0,12.0,59,0.00,,,0.00,PyWeather,2013-04-20 23:44:00,
2013-04-20 13:49:00,81.8,66.3,29.93,SW,217,6.0,17.0,59,0.00,,,0.00,PyWeather,2013-04-20 23:49:00,
2013-04-20 13:54:00,82.3,65.8,29.92,SW,236,8.0,17.0,57,0.00,,,0.00,PyWeather,2013-04-20 23:54:00,
2013-04-20 13:59:00,82.2,66.7,29.92,SSW,210,10.0,-999.0,59,0.00,,,0.00,PyWeather,2013-04-20 23:59:00,
2013-04-20 14:04:00,82.6,67.1,29.92,SW,234,11.0,-999.0,59,0.00,,,0.00,PyWeather,2013-04-21 00:04:00,
2013-04-20 14:09:00,82.1,66.1,29.92,WSW,244,11.0,-999.0,58,0.00,,,0.00,PyWeather,2013-04-21 00:09:00,
2013-04-20 14:14:00,81.8,66.3,29.92,WSW,244,12.0,-999.0,59,0.00,,,0.00,PyWeather,2013-04-21 00:14:00,
2013-04-20 14:19:00,82.0,67.0,29.92,WSW,244,10.0,18.0,60,0.00,,,0.00,PyWeather,2013-04-21 00:19:00,
2013-04-20 14:24:00,82.4,66.9,29.92,WSW,244,8.0,18.0,59,0.00,,,0.00,PyWeather,2013-04-21 00:24:00,
2013-04-20 14:46:00,82.3,67.8,29.91,NNE,16,9.0,-999.0,61,0.00,,,0.00,PyWeather,2013-04-21 00:46:00,
2013-04-20 14:51:00,82.2,67.7,29.91,NW,318,11.0,-999.0,61,0.00,,,0.00,PyWeather,2013-04-21 00:51:00,
2013-04-20 14:56:00,82.2,67.7,29.91,NW,317,10.0,-999.0,61,0.00,,,0.00,PyWeather,2013-04-21 00:56:00,
2013-04-20 15:01:00,82.1,67.6,29.91,NNW,346,11.0,-999.0,61,0.00,,,0.00,PyWeather,2013-04-21 01:01:00,
2013-04-20 15:06:00,81.6,67.1,29.91,NNW,347,11.0,-999.0,61,0.00,,,0.00,PyWeather,2013-04-21 01:06:00,
2013-04-20 15:11:00,81.7,67.7,29.91,NNW,342,9.0,-999.0,62,0.00,,,0.00,PyWeather,2013-04-21 01:11:00,
2013-04-20 15:16:00,82.2,67.2,29.91,North,350,7.0,-999.0,60,0.00,,,0.00,PyWeather,2013-04-21 01:16:00,
2013-04-20 15:21:00,82.1,67.1,29.91,NNE,19,8.0,15.0,60,0.00,,,0.00,PyWeather,2013-04-21 01:21:00,
2013-04-20 15:26:00,82.1,67.6,29.91,NNW,329,7.0,15.0,61,0.00,,,0.00,PyWeather,2013-04-21 01:26:00,
2013-04-20 15:32:00,82.4,66.9,29.91,NW,324,7.0,-999.0,59,0.00,,,0.00,PyWeather,2013-04-21 01:32:00,
2013-04-20 15:37:00,81.8,67.3,29.91,North,360,9.0,16.0,61,0.00,,,0.00,PyWeather,2013-04-21 01:37:00,
2013-04-20 15:42:00,81.6,67.1,29.91,North,360,10.0,16.0,61,0.00,,,0.00,PyWeather,2013-04-21 01:42:00,
2013-04-20 15:47:00,81.3,66.8,29.91,North,355,11.0,-999.0,61,0.00,,,0.00,PyWeather,2013-04-21 01:47:00,
2013-04-20 15:52:00,80.7,67.2,29.91,North,351,11.0,-999.0,63,0.00,,,0.00,PyWeather,2013-04-21 01:52:00,
2013-04-20 15:57:00,80.8,66.8,29.91,NNW,342,10.0,-999.0,62,0.00,,,0.00,PyWeather,2013-04-21 01:57:00,
2013-04-20 16:02:00,80.7,67.2,29.91,North,350,9.0,-999.0,63,0.00,,,0.00,PyWeather,2013-04-21 02:02:00,
2013-04-20 16:07:00,80.6,67.1,29.91,NW,322,8.0,-999.0,63,0.00,,,0.00,PyWeather,2013-04-21 02:07:00,
2013-04-20 16:12:00,80.3,67.3,29.92,NW,317,7.0,-999.0,64,0.00,,,0.00,PyWeather,2013-04-21 02:12:00,
2013-04-20 16:17:00,80.0,67.4,29.92,West,263,6.0,13.0,65,0.00,,,0.00,PyWeather,2013-04-21 02:17:00,
2013-04-20 16:22:00,80.0,67.0,29.92,WNW,291,6.0,13.0,64,0.00,,,0.00,PyWeather,2013-04-21 02:22:00,
2013-04-20 16:27:00,80.1,65.7,29.92,West,265,6.0,13.0,61,0.00,,,0.00,PyWeather,2013-04-21 02:27:00,
2013-04-20 16:32:00,80.1,64.7,29.92,West,267,6.0,13.0,59,0.00,,,0.00,PyWeather,2013-04-21 02:32:00,
2013-04-20 16:37:00,79.8,64.4,29.92,West,267,6.0,14.0,59,0.00,,,0.00,PyWeather,2013-04-21 02:37:00,
2013-04-20 16:42:00,80.0,65.1,29.91,SW,233,5.0,14.0,60,0.00,,,0.00,PyWeather,2013-04-21 02:42:00,
2013-04-20 16:47:00,79.8,64.9,29.92,WSW,248,8.0,-999.0,60,0.00,,,0.00,PyWeather,2013-04-21 02:47:00,
2013-04-20 16:52:00,80.2,65.3,29.92,WSW,252,8.0,-999.0,60,0.00,,,0.00,PyWeather,2013-04-21 02:52:00,
2013-04-20 16:57:00,80.1,65.7,29.92,WSW,237,8.0,-999.0,61,0.00,,,0.00,PyWeather,2013-04-21 02:57:00,
2013-04-20 17:02:00,79.6,65.2,29.92,WSW,237,9.0,-999.0,61,0.00,,,0.00,PyWeather,2013-04-21 03:02:00,
2013-04-20 17:07:00,79.4,65.0,29.92,SW,233,8.0,-999.0,61,0.00,,,0.00,PyWeather,2013-04-21 03:07:00,
2013-04-20 17:12:00,79.2,64.8,29.92,WSW,244,7.0,-999.0,61,0.00,,,0.00,PyWeather,2013-04-21 03:12:00,
2013-04-20 17:17:00,79.1,65.2,29.92,WSW,248,7.0,-999.0,62,0.00,,,0.00,PyWeather,2013-04-21 03:17:00,
2013-04-20 17:22:00,79.2,65.3,29.92,WSW,245,4.0,-999.0,62,0.00,,,0.00,PyWeather,2013-04-21 03:22:00,
2013-04-20 17:27:00,79.2,64.8,29.92,WSW,253,3.0,-999.0,61,0.00,,,0.00,PyWeather,2013-04-21 03:27:00,
2013-04-20 17:32:00,79.2,65.3,29.92,WSW,244,4.0,-999.0,62,0.00,,,0.00,PyWeather,2013-04-21 03:32:00,
2013-04-20 17:37:00,79.4,65.5,29.92,SSW,212,5.0,12.0,62,0.00,,,0.00,PyWeather,2013-04-21 03:37:00,
2013-04-20 17:42:00,79.3,66.3,29.92,SW,232,7.0,12.0,64,0.00,,,0.00,PyWeather,2013-04-21 03:42:00,
2013-04-20 17:47:00,79.0,65.6,29.92,SW,227,8.0,-999.0,63,0.00,,,0.00,PyWeather,2013-04-21 03:47:00,
2013-04-20 17:52:00,78.9,65.5,29.92,WSW,255,7.0,-999.0,63,0.00,,,0.00,PyWeather,2013-04-21 03:52:00,
2013-04-20 17:57:00,78.9,65.9,29.92,WSW,252,6.0,-999.0,64,0.00,,,0.00,PyWeather,2013-04-21 03:57:00,
2013-04-20 18:01:00,79.1,66.1,29.92,West,269,5.0,-999.0,64,0.00,,,0.00,PyWeather,2013-04-21 04:01:00,
2013-04-20 18:02:00,79.1,65.7,29.92,WNW,289,5.0,-999.0,63,0.00,,,0.00,PyWeather,2013-04-21 04:02:00,
2013-04-20 18:03:00,79.1,65.7,29.92,West,272,5.0,-999.0,63,0.00,,,0.00,PyWeather,2013-04-21 04:03:00,
2013-04-20 18:08:00,78.8,65.8,29.93,West,264,4.0,-999.0,64,0.00,,,0.00,PyWeather,2013-04-21 04:08:00,
2013-04-20 18:13:00,78.5,66.0,29.93,West,280,4.0,-999.0,65,0.00,,,0.00,PyWeather,2013-04-21 04:13:00,
2013-04-20 18:18:00,78.4,66.3,29.93,West,262,3.0,-999.0,66,0.00,,,0.00,PyWeather,2013-04-21 04:18:00,
2013-04-20 18:23:00,78.2,66.6,29.93,West,279,2.0,-999.0,67,0.00,,,0.00,PyWeather,2013-04-21 04:23:00,
2013-04-20 18:28:00,78.3,66.7,29.93,West,279,2.0,-999.0,67,0.00,,,0.00,PyWeather,2013-04-21 04:28:00,
2013-04-20 18:33:00,78.1,67.3,29.93,WNW,303,1.0,-999.0,69,0.00,,,0.00,PyWeather,2013-04-21 04:33:00,
2013-04-20 18:38:00,77.8,67.0,29.94,WNW,303,1.0,-999.0,69,0.00,,,0.00,PyWeather,2013-04-21 04:38:00,
2013-04-20 18:43:00,77.6,66.8,29.94,NW,306,1.0,-999.0,69,0.00,,,0.00,PyWeather,2013-04-21 04:43:00,
2013-04-20 18:48:00,77.5,66.3,29.94,WNW,296,1.0,-999.0,68,0.00,,,0.00,PyWeather,2013-04-21 04:48:00,
2013-04-20 18:53:00,77.4,66.2,29.94,NW,307,0.0,-999.0,68,0.00,,,0.00,PyWeather,2013-04-21 04:53:00,
2013-04-20 18:58:00,77.4,65.8,29.94,WNW,283,0.0,-999.0,67,0.00,,,0.00,PyWeather,2013-04-21 04:58:00,
2013-04-20 19:03:00,77.5,65.9,29.94,West,271,0.0,-999.0,67,0.00,,,0.00,PyWeather,2013-04-21 05:03:00,
2013-04-20 19:08:00,77.5,65.9,29.94,West,268,0.0,-999.0,67,0.00,,,0.00,PyWeather,2013-04-21 05:08:00,
2013-04-20 19:13:00,77.4,66.2,29.94,WSW,255,1.0,-999.0,68,0.00,,,0.00,PyWeather,2013-04-21 05:13:00,
2013-04-20 19:18:00,77.3,66.6,29.94,WSW,256,1.0,-999.0,69,0.00,,,0.00,PyWeather,2013-04-21 05:18:00,
2013-04-20 19:23:00,77.1,66.4,29.94,WSW,255,0.0,-999.0,69,0.00,,,0.00,PyWeather,2013-04-21 05:23:00,
2013-04-20 19:28:00,77.0,66.3,29.94,WSW,255,0.0,-999.0,69,0.00,,,0.00,PyWeather,2013-04-21 05:28:00,
2013-04-20 19:33:00,76.9,66.2,29.94,WSW,256,0.0,-999.0,69,0.00,,,0.00,PyWeather,2013-04-21 05:33:00,
2013-04-20 19:38:00,76.7,66.0,29.95,WSW,256,0.0,-999.0,69,0.00,,,0.00,PyWeather,2013-04-21 05:38:00,
2013-04-20 19:43:00,76.6,66.3,29.95,WSW,255,0.0,-999.0,70,0.00,,,0.00,PyWeather,2013-04-21 05:43:00,
2013-04-20 19:48:00,76.6,66.3,29.95,WSW,255,0.0,-999.0,70,0.00,,,0.00,PyWeather,2013-04-21 05:48:00,
2013-04-20 19:53:00,76.6,66.3,29.95,WSW,256,0.0,-999.0,70,0.00,,,0.00,PyWeather,2013-04-21 05:53:00,
2013-04-20 19:58:00,76.4,66.5,29.95,WSW,255,0.0,-999.0,71,0.00,,,0.00,PyWeather,2013-04-21 05:58:00,
2013-04-20 20:03:00,76.4,66.5,29.96,WSW,245,1.0,-999.0,71,0.00,,,0.00,PyWeather,2013-04-21 06:03:00,
2013-04-20 20:08:00,76.2,66.7,29.96,SW,234,1.0,-999.0,72,0.00,,,0.00,PyWeather,2013-04-21 06:08:00,
2013-04-20 20:13:00,76.1,67.0,29.96,SW,234,1.0,-999.0,73,0.00,,,0.00,PyWeather,2013-04-21 06:13:00,
2013-04-20 20:18:00,76.0,66.9,29.96,SW,234,0.0,-999.0,73,0.00,,,0.00,PyWeather,2013-04-21 06:18:00,
2013-04-20 20:23:00,75.8,66.7,29.96,SW,234,0.0,-999.0,73,0.00,,,0.00,PyWeather,2013-04-21 06:23:00,
2013-04-20 20:28:00,75.6,66.9,29.96,SW,234,0.0,-999.0,74,0.00,,,0.00,PyWeather,2013-04-21 06:28:00,
2013-04-20 20:33:00,75.5,66.4,29.96,SW,234,0.0,-999.0,73,0.00,,,0.00,PyWeather,2013-04-21 06:33:00,
2013-04-20 20:38:00,75.5,66.4,29.97,SW,234,0.0,-999.0,73,0.00,,,0.00,PyWeather,2013-04-21 06:38:00,
2013-04-20 20:43:00,75.4,65.9,29.97,SW,234,0.0,-999.0,72,0.00,,,0.00,PyWeather,2013-04-21 06:43:00,
2013-04-20 20:48:00,75.1,66.0,29.97,SW,234,0.0,-999.0,73,0.00,,,0.00,PyWeather,2013-04-21 06:48:00,
2013-04-20 20:53:00,74.8,65.7,29.97,SW,234,0.0,-999.0,73,0.00,,,0.00,PyWeather,2013-04-21 06:53:00,
2013-04-20 20:58:00,74.5,65.8,29.97,SW,234,0.0,-999.0,74,0.00,,,0.00,PyWeather,2013-04-21 06:58:00,
2013-04-20 21:03:00,74.3,65.6,29.97,SW,234,0.0,-999.0,74,0.00,,,0.00,PyWeather,2013-04-21 07:03:00,
2013-04-20 21:08:00,74.2,65.5,29.97,SW,234,0.0,-999.0,74,0.00,,,0.00,PyWeather,2013-04-21 07:08:00,
2013-04-20 21:13:00,74.1,65.4,29.97,SW,234,0.0,-999.0,74,0.00,,,0.00,PyWeather,2013-04-21 07:13:00,
2013-04-20 21:18:00,74.0,65.7,29.98,SW,234,0.0,-999.0,75,0.00,,,0.00,PyWeather,2013-04-21 07:18:00,
2013-04-20 21:23:00,73.9,65.6,29.98,SW,234,0.0,-999.0,75,0.00,,,0.00,PyWeather,2013-04-21 07:23:00,
2013-04-20 21:28:00,73.9,65.6,29.98,SW,234,0.0,-999.0,75,0.00,,,0.00,PyWeather,2013-04-21 07:28:00,
2013-04-20 21:33:00,73.3,65.0,29.98,SE,131,0.0,-999.0,75,0.00,,,0.00,PyWeather,2013-04-21 07:33:00,
2013-04-20 21:38:00,73.0,64.8,29.98,SE,126,0.0,-999.0,75,0.00,,,0.00,PyWeather,2013-04-21 07:38:00,
2013-04-20 21:43:00,73.2,65.3,29.98,SE,125,0.0,-999.0,76,0.00,,,0.00,PyWeather,2013-04-21 07:43:00,
2013-04-20 21:48:00,73.3,65.0,29.98,SE,124,0.0,-999.0,75,0.00,,,0.00,PyWeather,2013-04-21 07:48:00,
2013-04-20 21:53:00,73.3,65.4,29.98,SE,124,0.0,-999.0,76,0.00,,,0.00,PyWeather,2013-04-21 07:53:00,
2013-04-20 21:58:00,73.1,64.9,29.98,WNW,300,1.0,-999.0,75,0.00,,,0.00,PyWeather,2013-04-21 07:58:00,
2013-04-20 22:03:00,72.2,64.0,29.98,NNW,343,1.0,-999.0,75,0.00,,,0.00,PyWeather,2013-04-21 08:03:00,
2013-04-20 22:08:00,71.7,64.2,29.99,NNW,347,0.0,-999.0,77,0.00,,,0.00,PyWeather,2013-04-21 08:08:00,
2013-04-20 22:13:00,71.4,63.9,29.99,NNW,348,0.0,-999.0,77,0.00,,,0.00,PyWeather,2013-04-21 08:13:00,
2013-04-20 22:18:00,71.1,64.0,29.99,NNW,348,0.0,-999.0,78,0.00,,,0.00,PyWeather,2013-04-21 08:18:00,
2013-04-20 22:23:00,70.7,63.6,29.99,NNW,347,0.0,-999.0,78,0.00,,,0.00,PyWeather,2013-04-21 08:23:00,
2013-04-20 22:28:00,70.5,63.8,29.99,NNW,347,0.0,-999.0,79,0.00,,,0.00,PyWeather,2013-04-21 08:28:00,
2013-04-20 22:33:00,70.4,64.4,29.99,NNW,348,0.0,-999.0,81,0.00,,,0.00,PyWeather,2013-04-21 08:33:00,
2013-04-20 22:38:00,70.8,65.1,29.99,NNW,347,0.0,-999.0,82,0.00,,,0.00,PyWeather,2013-04-21 08:38:00,
2013-04-20 22:43:00,70.9,65.2,29.99,NNW,347,0.0,-999.0,82,0.00,,,0.00,PyWeather,2013-04-21 08:43:00,
2013-04-20 22:48:00,70.8,64.8,29.99,NNW,348,0.0,-999.0,81,0.00,,,0.00,PyWeather,2013-04-21 08:48:00,
2013-04-20 22:53:00,70.7,65.0,29.98,NNW,347,0.0,-999.0,82,0.00,,,0.00,PyWeather,2013-04-21 08:53:00,
2013-04-20 22:58:00,70.6,64.9,29.98,NNW,348,0.0,-999.0,82,0.00,,,0.00,PyWeather,2013-04-21 08:58:00,
2013-04-20 23:03:00,70.4,64.4,29.98,NNW,348,0.0,-999.0,81,0.00,,,0.00,PyWeather,2013-04-21 09:03:00,
2013-04-20 23:08:00,70.2,64.2,29.98,NNW,348,0.0,-999.0,81,0.00,,,0.00,PyWeather,2013-04-21 09:08:00,
2013-04-20 23:13:00,70.0,64.0,29.98,NNW,347,0.0,-999.0,81,0.00,,,0.00,PyWeather,2013-04-21 09:13:00,
2013-04-20 23:18:00,70.1,63.7,29.98,NNW,348,0.0,-999.0,80,0.00,,,0.00,PyWeather,2013-04-21 09:18:00,
2013-04-20 23:23:00,70.1,63.7,29.98,NNW,347,0.0,-999.0,80,0.00,,,0.00,PyWeather,2013-04-21 09:23:00,
2013-04-20 23:28:00,70.2,63.8,29.98,NNW,347,0.0,-999.0,80,0.00,,,0.00,PyWeather,2013-04-21 09:28:00,
2013-04-20 23:33:00,70.2,63.5,29.98,NNW,348,0.0,-999.0,79,0.00,,,0.00,PyWeather,2013-04-21 09:33:00,
2013-04-20 23:38:00,70.2,63.5,29.97,NNW,348,0.0,-999.0,79,0.00,,,0.00,PyWeather,2013-04-21 09:38:00,
2013-04-20 23:43:00,70.2,63.5,29.98,NNW,347,0.0,-999.0,79,0.00,,,0.00,PyWeather,2013-04-21 09:43:00,
2013-04-20 23:48:00,70.0,63.3,29.97,NNW,348,0.0,-999.0,79,0.00,,,0.00,PyWeather,2013-04-21 09:48:00,
2013-04-20 23:53:00,69.8,63.1,29.97,NNW,347,0.0,-999.0,79,0.00,,,0.00,PyWeather,2013-04-21 09:53:00,
2013-04-20 23:58:00,69.6,63.2,29.97,NNW,347,0.0,-999.0,80,0.00,,,0.00,PyWeather,2013-04-21 09:58:00,